Location: Arpaise
(41.0333°N, 14.7333°E)
Time: 08:07:29
(UTC+00:00)

Cosmos 1626 Rocket - Pass Details

Date: 05 July 2020
Orbit: 602 x 632 km, 82.5° (Epoch: 06 August)

Event Time Altitude Azimuth Distance (km) Brightness Sun altitude
Rises 19:30:43 0° 194° (SSW) 2,896 6.7 -9.1°
Reaches altitude 10° 19:32:57 10° 198° (SSW) 1,997 5.9 -9.4°
Maximum altitude 19:37:21 63° 280° (W) 706 4.1 -10.0°
Drops below altitude 10° 19:41:48 10° 1° (N) 2,021 6.8 -10.6°
Sets 19:44:05 0° 5° (N) 2,934 7.6 -11.0°
